Time,TemperatureF,DewpointF,PressureIn,WindDirection,WindDirectionDegrees,WindSpeedMPH,WindSpeedGustMPH,Humidity,HourlyPrecipIn,Conditions,Clouds,dailyrainin,SolarRadiationWatts/m^2,SoftwareType,DateUTC
2013-10-12 00:11:00,48.1,46.0,29.82,NNE,22,0.0,0.0,92,0.00,,,0.01,0,weatherlink.com 1.10,2013-10-12 04:11:00,
2013-10-12 00:26:00,47.4,45.0,29.82,NNE,22,1.0,2.0,92,0.00,,,0.01,0,weatherlink.com 1.10,2013-10-12 04:26:00,
2013-10-12 00:41:00,47.0,45.0,29.82,NNE,22,0.0,2.0,93,0.00,,,0.01,0,weatherlink.com 1.10,2013-10-12 04:41:00,
2013-10-12 00:56:00,46.8,45.0,29.82,NNE,22,0.0,2.0,94,0.00,,,0.01,0,weatherlink.com 1.10,2013-10-12 04:56:00,
2013-10-12 01:11:00,46.7,45.0,29.82,NNE,22,0.0,0.0,94,0.00,,,0.01,0,weatherlink.com 1.10,2013-10-12 05:11:00,
2013-10-12 01:26:00,46.4,45.0,29.83,NNE,22,0.0,1.0,94,0.00,,,0.01,0,weatherlink.com 1.10,2013-10-12 05:26:00,
2013-10-12 01:41:00,46.1,45.0,29.83,NNE,22,0.0,2.0,94,0.00,,,0.01,0,weatherlink.com 1.10,2013-10-12 05:41:00,
2013-10-12 01:56:00,45.9,45.0,29.83,NNE,22,0.0,2.0,95,0.00,,,0.01,0,weatherlink.com 1.10,2013-10-12 05:56:00,
2013-10-12 02:11:00,45.8,45.0,29.83,NNE,22,1.0,1.0,95,0.00,,,0.01,0,weatherlink.com 1.10,2013-10-12 06:11:00,
2013-10-12 02:26:00,45.5,44.0,29.84,NNE,22,0.0,2.0,95,0.00,,,0.01,0,weatherlink.com 1.10,2013-10-12 06:26:00,
2013-10-12 02:41:00,45.4,44.0,29.84,NNE,22,1.0,2.0,96,0.00,,,0.01,0,weatherlink.com 1.10,2013-10-12 06:41:00,
2013-10-12 02:56:00,45.8,45.0,29.84,NNE,22,0.0,3.0,96,0.00,,,0.01,0,weatherlink.com 1.10,2013-10-12 06:56:00,
2013-10-12 03:11:00,46.2,45.0,29.84,NNE,22,0.0,2.0,96,0.00,,,0.01,0,weatherlink.com 1.10,2013-10-12 07:11:00,
2013-10-12 03:26:00,46.0,45.0,29.84,NNE,22,1.0,3.0,97,0.00,,,0.01,0,weatherlink.com 1.10,2013-10-12 07:26:00,
2013-10-12 03:41:00,46.0,45.0,29.84,NNE,22,0.0,2.0,97,0.00,,,0.01,0,weatherlink.com 1.10,2013-10-12 07:41:00,
2013-10-12 03:56:00,45.8,45.0,29.85,NNE,22,1.0,2.0,97,0.00,,,0.01,0,weatherlink.com 1.10,2013-10-12 07:56:00,
2013-10-12 04:11:00,45.4,45.0,29.85,NNE,22,1.0,2.0,97,0.00,,,0.00,0,weatherlink.com 1.10,2013-10-12 08:11:00,
2013-10-12 04:26:00,45.2,44.0,29.85,NNE,22,0.0,2.0,97,0.00,,,0.00,0,weatherlink.com 1.10,2013-10-12 08:26:00,
2013-10-12 04:41:00,45.1,44.0,29.86,NNE,22,0.0,2.0,97,0.00,,,0.00,0,weatherlink.com 1.10,2013-10-12 08:41:00,
2013-10-12 04:56:00,45.2,44.0,29.86,NNE,22,1.0,3.0,97,0.00,,,0.00,0,weatherlink.com 1.10,2013-10-12 08:56:00,
2013-10-12 05:11:00,45.6,45.0,29.86,NNE,22,0.0,2.0,97,0.00,,,0.00,0,weatherlink.com 1.10,2013-10-12 09:11:00,
2013-10-12 05:27:00,45.6,45.0,29.87,NNE,22,0.0,2.0,97,0.00,,,0.00,0,weatherlink.com 1.10,2013-10-12 09:27:00,
2013-10-12 05:42:00,45.3,45.0,29.87,NNE,22,1.0,2.0,97,0.00,,,0.00,0,weatherlink.com 1.10,2013-10-12 09:42:00,
2013-10-12 05:57:00,45.0,44.0,29.88,NNE,22,0.0,2.0,97,0.00,,,0.00,0,weatherlink.com 1.10,2013-10-12 09:57:00,
2013-10-12 06:12:00,44.9,44.0,29.88,NNE,22,1.0,2.0,97,0.00,,,0.00,0,weatherlink.com 1.10,2013-10-12 10:12:00,
2013-10-12 06:27:00,44.5,44.0,29.88,NNE,22,1.0,2.0,97,0.00,,,0.00,0,weatherlink.com 1.10,2013-10-12 10:27:00,
2013-10-12 06:42:00,44.2,43.0,29.89,NNE,22,2.0,2.0,97,0.00,,,0.00,0,weatherlink.com 1.10,2013-10-12 10:42:00,
2013-10-12 06:57:00,44.1,43.0,29.90,NNE,22,0.0,2.0,97,0.00,,,0.00,0,weatherlink.com 1.10,2013-10-12 10:57:00,
2013-10-12 07:12:00,44.1,43.0,29.90,NNE,19,0.0,3.0,97,0.00,,,0.00,9,weatherlink.com 1.10,2013-10-12 11:12:00,
2013-10-12 07:27:00,44.8,44.0,29.91,North,9,0.0,2.0,97,0.00,,,0.00,21,weatherlink.com 1.10,2013-10-12 11:27:00,
2013-10-12 07:42:00,46.1,46.0,29.92,North,360,0.0,3.0,98,0.00,,,0.00,42,weatherlink.com 1.10,2013-10-12 11:42:00,
2013-10-12 07:57:00,49.1,49.0,29.93,NNE,20,1.0,6.0,98,0.00,,,0.00,47,weatherlink.com 1.10,2013-10-12 11:57:00,
2013-10-12 08:12:00,52.1,52.0,29.93,NE,39,4.0,10.0,98,0.00,,,0.00,54,weatherlink.com 1.10,2013-10-12 12:12:00,
2013-10-12 08:27:00,52.8,52.0,29.94,NE,34,4.0,12.0,98,0.00,,,0.00,62,weatherlink.com 1.10,2013-10-12 12:27:00,
2013-10-12 08:42:00,53.2,53.0,29.94,NNE,13,3.0,7.0,98,0.00,,,0.00,76,weatherlink.com 1.10,2013-10-12 12:42:00,
2013-10-12 08:57:00,53.7,53.0,29.95,NE,38,4.0,9.0,98,0.00,,,0.00,79,weatherlink.com 1.10,2013-10-12 12:57:00,
2013-10-12 09:12:00,54.6,54.0,29.95,NNE,19,3.0,8.0,98,0.00,,,0.00,137,weatherlink.com 1.10,2013-10-12 13:12:00,
2013-10-12 09:27:00,55.4,55.0,29.95,NNE,30,3.0,7.0,98,0.00,,,0.00,98,weatherlink.com 1.10,2013-10-12 13:27:00,
2013-10-12 09:42:00,56.2,56.0,29.96,NE,43,4.0,7.0,98,0.00,,,0.00,98,weatherlink.com 1.10,2013-10-12 13:42:00,
2013-10-12 09:57:00,56.8,56.0,29.96,North,5,3.0,6.0,97,0.00,,,0.00,83,weatherlink.com 1.10,2013-10-12 13:57:00,
2013-10-12 10:12:00,57.3,56.0,29.96,NNE,23,2.0,6.0,96,0.00,,,0.00,83,weatherlink.com 1.10,2013-10-12 14:12:00,
2013-10-12 10:27:00,57.8,56.0,29.96,NE,40,1.0,9.0,94,0.00,,,0.00,97,weatherlink.com 1.10,2013-10-12 14:27:00,
2013-10-12 10:42:00,58.1,56.0,29.97,NNE,25,3.0,11.0,92,0.00,,,0.00,81,weatherlink.com 1.10,2013-10-12 14:42:00,
2013-10-12 10:57:00,58.3,56.0,29.97,NE,38,4.0,6.0,92,0.00,,,0.00,127,weatherlink.com 1.10,2013-10-12 14:57:00,
2013-10-12 11:13:00,58.5,56.0,29.98,NE,36,3.0,9.0,91,0.00,,,0.00,104,weatherlink.com 1.10,2013-10-12 15:13:00,
2013-10-12 11:28:00,58.5,56.0,29.97,North,355,6.0,10.0,91,0.00,,,0.00,98,weatherlink.com 1.10,2013-10-12 15:28:00,
2013-10-12 11:43:00,58.4,56.0,29.98,NNE,30,4.0,9.0,91,0.00,,,0.00,95,weatherlink.com 1.10,2013-10-12 15:43:00,
2013-10-12 11:58:00,58.4,56.0,29.98,North,9,3.0,10.0,90,0.00,,,0.00,67,weatherlink.com 1.10,2013-10-12 15:58:00,
2013-10-12 12:13:00,58.3,56.0,29.98,NNE,30,7.0,10.0,90,0.00,,,0.00,72,weatherlink.com 1.10,2013-10-12 16:13:00,
2013-10-12 12:28:00,58.3,56.0,29.98,NNE,13,6.0,7.0,90,0.00,,,0.00,69,weatherlink.com 1.10,2013-10-12 16:28:00,
2013-10-12 12:43:00,58.4,56.0,29.98,North,360,9.0,10.0,90,0.00,,,0.00,76,weatherlink.com 1.10,2013-10-12 16:43:00,
2013-10-12 12:58:00,58.2,55.0,29.98,NNE,31,3.0,10.0,90,0.00,,,0.00,67,weatherlink.com 1.10,2013-10-12 16:58:00,
2013-10-12 13:13:00,58.3,55.0,29.98,NE,37,1.0,7.0,89,0.00,,,0.00,69,weatherlink.com 1.10,2013-10-12 17:13:00,
2013-10-12 13:28:00,58.4,55.0,29.98,East,94,1.0,10.0,88,0.00,,,0.00,72,weatherlink.com 1.10,2013-10-12 17:28:00,
2013-10-12 13:43:00,58.6,55.0,29.98,NNE,28,2.0,7.0,88,0.00,,,0.00,83,weatherlink.com 1.10,2013-10-12 17:43:00,
2013-10-12 13:58:00,58.4,55.0,29.98,NE,40,4.0,9.0,88,0.00,,,0.00,63,weatherlink.com 1.10,2013-10-12 17:58:00,
2013-10-12 14:13:00,58.4,55.0,29.98,NNE,18,6.0,8.0,89,0.00,,,0.00,69,weatherlink.com 1.10,2013-10-12 18:13:00,
2013-10-12 14:28:00,58.3,55.0,29.99,NNE,33,5.0,8.0,88,0.00,,,0.00,40,weatherlink.com 1.10,2013-10-12 18:28:00,
2013-10-12 14:43:00,58.0,55.0,29.99,NNE,23,7.0,11.0,88,0.00,,,0.00,58,weatherlink.com 1.10,2013-10-12 18:43:00,
2013-10-12 14:58:00,57.9,54.0,29.99,NNE,23,6.0,9.0,88,0.00,,,0.00,49,weatherlink.com 1.10,2013-10-12 18:58:00,
2013-10-12 15:13:00,57.7,54.0,29.99,NE,38,1.0,11.0,88,0.00,,,0.00,49,weatherlink.com 1.10,2013-10-12 19:13:00,
2013-10-12 15:28:00,57.5,54.0,29.99,East,85,7.0,11.0,88,0.00,,,0.00,35,weatherlink.com 1.10,2013-10-12 19:28:00,
2013-10-12 15:43:00,57.4,54.0,30.00,NE,42,3.0,8.0,89,0.00,,,0.00,28,weatherlink.com 1.10,2013-10-12 19:43:00,
2013-10-12 15:58:00,57.1,54.0,29.99,NE,36,3.0,12.0,90,0.00,,,0.00,30,weatherlink.com 1.10,2013-10-12 19:58:00,
2013-10-12 16:13:00,57.1,54.0,30.00,NE,44,1.0,8.0,90,0.00,,,0.00,23,weatherlink.com 1.10,2013-10-12 20:13:00,
2013-10-12 16:28:00,56.9,54.0,30.00,NNE,21,7.0,10.0,90,0.00,,,0.00,23,weatherlink.com 1.10,2013-10-12 20:28:00,
2013-10-12 16:43:00,56.6,54.0,30.00,NNE,26,4.0,5.0,90,0.00,,,0.00,25,weatherlink.com 1.10,2013-10-12 20:43:00,
2013-10-12 16:58:00,56.5,54.0,30.01,NNE,22,2.0,6.0,90,0.00,,,0.00,26,weatherlink.com 1.10,2013-10-12 20:58:00,
2013-10-12 17:13:00,56.5,54.0,30.01,NNE,24,0.0,8.0,90,0.00,,,0.00,16,weatherlink.com 1.10,2013-10-12 21:13:00,
2013-10-12 17:28:00,56.5,53.0,30.01,NNE,23,6.0,6.0,89,0.00,,,0.00,12,weatherlink.com 1.10,2013-10-12 21:28:00,
2013-10-12 17:43:00,56.3,54.0,30.02,NNE,26,4.0,8.0,91,0.00,,,0.00,0,weatherlink.com 1.10,2013-10-12 21:43:00,
2013-10-12 17:58:00,55.6,53.0,30.01,NE,40,1.0,10.0,92,0.00,,,0.00,0,weatherlink.com 1.10,2013-10-12 21:58:00,
2013-10-12 18:13:00,55.3,53.0,30.01,NNE,28,0.0,8.0,93,0.00,,,0.00,0,weatherlink.com 1.10,2013-10-12 22:13:00,
2013-10-12 18:28:00,55.1,53.0,30.01,NNE,24,1.0,5.0,93,0.00,,,0.00,0,weatherlink.com 1.10,2013-10-12 22:28:00,
2013-10-12 18:43:00,55.0,53.0,30.02,NNE,21,2.0,5.0,93,0.00,,,0.00,0,weatherlink.com 1.10,2013-10-12 22:43:00,
2013-10-12 18:58:00,54.9,53.0,30.02,NE,35,0.0,7.0,93,0.00,,,0.00,0,weatherlink.com 1.10,2013-10-12 22:58:00,
2013-10-12 19:13:00,54.9,53.0,30.02,NNE,26,2.0,4.0,93,0.00,,,0.00,0,weatherlink.com 1.10,2013-10-12 23:13:00,
2013-10-12 19:28:00,54.8,53.0,30.03,NNE,15,3.0,7.0,94,0.00,,,0.00,0,weatherlink.com 1.10,2013-10-12 23:28:00,
2013-10-12 19:43:00,54.6,53.0,30.03,North,5,0.0,7.0,94,0.00,,,0.00,0,weatherlink.com 1.10,2013-10-12 23:43:00,
2013-10-12 19:58:00,54.5,53.0,30.04,NNE,18,2.0,6.0,94,0.00,,,0.00,0,weatherlink.com 1.10,2013-10-12 23:58:00,
2013-10-12 20:13:00,54.4,53.0,30.04,NNE,19,5.0,6.0,94,0.00,,,0.00,0,weatherlink.com 1.10,2013-10-13 00:13:00,
2013-10-12 20:28:00,54.2,53.0,30.04,NNE,30,3.0,7.0,94,0.00,,,0.00,0,weatherlink.com 1.10,2013-10-13 00:28:00,
2013-10-12 20:43:00,54.0,52.0,30.04,NNE,30,2.0,5.0,94,0.00,,,0.00,0,weatherlink.com 1.10,2013-10-13 00:43:00,
2013-10-12 20:58:00,53.9,52.0,30.05,NNE,13,2.0,5.0,93,0.00,,,0.00,0,weatherlink.com 1.10,2013-10-13 00:58:00,
2013-10-12 21:13:00,53.8,52.0,30.05,NNE,30,4.0,5.0,93,0.00,,,0.00,0,weatherlink.com 1.10,2013-10-13 01:13:00,
2013-10-12 21:28:00,53.7,52.0,30.05,NNE,24,1.0,4.0,92,0.00,,,0.00,0,weatherlink.com 1.10,2013-10-13 01:28:00,
2013-10-12 21:43:00,53.6,51.0,30.05,NNE,28,2.0,5.0,92,0.00,,,0.00,0,weatherlink.com 1.10,2013-10-13 01:43:00,
2013-10-12 21:58:00,53.5,51.0,30.05,NNE,13,0.0,4.0,92,0.00,,,0.00,0,weatherlink.com 1.10,2013-10-13 01:58:00,
2013-10-12 22:13:00,53.5,51.0,30.06,NNE,22,4.0,5.0,92,0.00,,,0.00,0,weatherlink.com 1.10,2013-10-13 02:13:00,
2013-10-12 22:28:00,53.5,51.0,30.06,NNE,14,4.0,5.0,91,0.00,,,0.00,0,weatherlink.com 1.10,2013-10-13 02:28:00,
2013-10-12 22:44:00,53.5,51.0,30.06,North,9,4.0,6.0,91,0.00,,,0.00,0,weatherlink.com 1.10,2013-10-13 02:44:00,
2013-10-12 22:59:00,53.4,51.0,30.06,NE,34,4.0,6.0,90,0.00,,,0.00,0,weatherlink.com 1.10,2013-10-13 02:59:00,
2013-10-12 23:14:00,53.5,51.0,30.06,NE,35,4.0,6.0,90,0.00,,,0.00,0,weatherlink.com 1.10,2013-10-13 03:14:00,
2013-10-12 23:29:00,53.5,50.0,30.06,North,5,3.0,5.0,89,0.00,,,0.00,0,weatherlink.com 1.10,2013-10-13 03:29:00,
2013-10-12 23:44:00,53.5,50.0,30.05,NNE,31,1.0,5.0,89,0.00,,,0.00,0,weatherlink.com 1.10,2013-10-13 03:44:00,
2013-10-12 23:59:00,53.4,50.0,30.05,NNE,15,3.0,5.0,89,0.00,,,0.00,0,weatherlink.com 1.10,2013-10-13 03:59:00,